Wind_Speed
32 31 31 30 29 29 28 27 27 26 26 25 25 24 23 23 22 22 21 20 19 18 17 17 17 16 16 16 16 16 16 16 15 15 15 15 15 15 16 16 16 16 17
34 33 33 32 32 31 30 29 28 28 27 27 26 26 25 25 24 23 23 22 21 20 20 19 19 18 18 18 18 18 18 17 17 16 17 17 17 17 17 17 17 17 18
36 35 35 35 34 33 32 31 30 29 29 28 28 28 27 27 26 25 24 24 23 23 22 22 21 20 20 20 19 19 19 18 18 18 18 18 19 19 19 19 19 18 18
39 38 37 37 36 35 34 33 32 31 31 30 29 29 29 29 28 27 27 26 25 25 24 23 23 22 22 21 21 20 20 20 19 19 20 20 20 21 21 20 20 20 20
42 40 39 39 38 37 37 35 34 33 32 31 31 30 30 30 29 29 28 28 27 27 26 25 24 24 24 23 22 22 21 21 21 21 22 22 22 21 21 21 21 21 21
44 43 42 41 40 40 39 38 36 36 34 33 33 32 32 31 30 30 29 29 29 29 28 28 27 26 26 25 25 24 24 23 23 23 23 22 23 23 22 21 21 22 22
47 46 45 43 42 42 41 40 39 38 37 36 35 34 34 33 32 32 31 31 30 30 30 30 29 28 27 27 26 26 26 25 25 24 24 24 24 24 23 22 22 22 23
48 48 47 46 45 44 43 42 41 40 38 38 37 36 35 34 34 33 33 32 32 31 31 31 31 30 29 29 28 28 27 27 26 26 25 25 25 24 24 24 23 23 23
49 50 49 48 48 47 45 44 43 42 41 40 39 38 37 36 36 35 35 34 33 33 33 33 32 31 31 30 30 29 28 28 28 27 27 26 26 25 25 25 25 25 24
50 51 51 49 48 48 48 47 46 45 43 42 41 40 40 39 38 37 36 36 35 34 34 34 33 33 32 32 32 30 30 30 29 29 28 28 27 27 27 27 27 27 26
50 51 51 51 51 50 50 49 48 47 46 45 43 42 42 41 40 39 38 38 36 35 35 35 35 34 34 33 33 33 32 31 30 30 30 29 29 29 28 28 28 28 28
52 51 51 51 51 50 50 50 50 49 48 46 45 45 44 43 42 41 40 39 39 37 36 36 36 35 35 34 34 33 33 32 32 32 31 31 30 30 30 30 30 30 30
54 53 52 52 53 52 51 51 50 50 50 49 48 46 46 45 44 43 43 42 41 39 38 37 37 36 36 35 35 35 34 34 34 33 33 32 32 32 32 32 32 32 32
55 54 53 53 54 54 53 52 52 51 51 51 50 49 48 47 45 45 44 43 43 42 41 39 38 38 37 37 36 36 36 36 36 36 35 35 34 34 34 33 34 34 34
56 55 55 55 55 54 55 54 54 53 53 53 52 52 50 49 47 46 45 45 44 44 43 42 41 40 40 39 39 38 38 38 37 37 37 37 36 36 35 35 36 36 37
56 57 59 57 57 56 56 56 55 54 54 53 53 53 52 51 50 48 46 46 45 45 44 43 43 42 42 42 42 41 40 40 40 39 39 39 38 38 38 37 38 39 39
56 56 57 58 57 57 56 56 56 55 55 54 53 52 51 52 51 50 48 47 46 45 45 44 44 44 44 44 43 43 42 42 41 41 41 41 41 41 40 40 40 41 42
57 57 57 57 57 58 57 57 57 57 55 54 53 52 52 52 52 51 50 49 48 47 46 46 46 45 45 45 44 44 44 44 43 42 42 43 43 43 43 43 43 43 44
54 55 57 57 57 58 57 56 56 56 56 55 54 54 54 54 53 52 51 50 50 49 48 48 47 47 47 47 46 46 45 45 45 44 44 45 45 45 44 45 45 46 46
54 54 55 57 58 58 58 57 56 55 56 56 56 55 55 54 54 53 52 52 52 51 50 50 50 49 49 48 48 47 47 47 47 46 46 46 46 46 47 47 47 48 48
55 55 55 55 57 57 58 58 57 56 56 56 57 58 57 56 55 54 53 53 53 52 52 51 51 51 51 50 49 49 48 48 48 48 48 48 48 48 49 49 49 50 50
54 55 56 56 56 56 57 58 58 57 56 56 57 57 57 57 57 56 55 55 54 54 53 53 52 52 51 51 51 50 50 49 49 48 49 49 49 49 50 50 50 50 51
54 55 55 56 56 56 57 57 58 58 58 57 56 57 57 57 58 57 56 55 54 54 54 53 53 52 52 52 52 51 50 50 49 49 50 49 50 50 50 51 51 50 51
55 55 55 56 56 56 56 57 58 59 59 58 57 57 57 58 58 58 57 56 56 55 54 54 53 52 52 52 52 52 52 52 52 51 51 51 51 51 51 51 51 51 51
55 55 56 56 57 56 57 57 57 58 59 59 58 57 57 57 58 58 58 57 56 56 55 55 54 53 53 53 54 54 54 53 51 51 51 51 51 51 51 51 51 51 51
53 55 55 56 56 57 57 57 57 58 58 58 58 57 57 57 57 57 57 58 57 57 57 56 55 54 53 54 54 54 53 52 51 51 51 51 51 51 51 51 51 51 51
Wind_Direction
235 235 236 236 237 238 239 238 237 238 239 240 240 241 242 242 243 244 245 246 248 249 252 256 257 258 260 263 267 270 271 275 279 281 285 289 292 294 297 299 301 303 305
236 236 236 236 237 238 239 240 240 240 240 241 242 242 243 243 245 244 245 247 248 250 253 257 259 259 260 263 267 269 271 273 277 281 283 286 289 292 294 296 297 299 301
236 236 236 237 237 238 238 240 241 242 243 243 243 244 244 245 245 245 246 247 250 251 253 256 258 259 260 262 266 268 270 273 275 279 282 284 286 289 292 293 294 296 299
236 236 236 237 238 238 239 240 241 243 244 244 244 243 244 245 246 246 247 248 250 252 253 255 256 258 259 261 264 267 269 272 275 277 280 282 285 288 290 291 292 293 295
237 236 237 238 238 239 239 240 241 243 244 245 245 244 245 245 246 247 248 249 250 252 253 254 256 257 258 260 263 264 268 272 275 277 280 281 283 286 289 290 291 292 294
238 238 238 238 238 239 240 241 242 242 244 245 245 245 245 245 246 247 248 249 250 252 253 254 256 257 259 259 261 263 267 270 274 277 279 281 282 285 286 288 290 290 292
237 238 238 238 239 239 240 241 242 243 244 245 246 246 246 246 247 248 249 250 251 252 253 254 256 256 258 259 260 263 266 269 272 275 278 281 283 283 284 286 289 290 291
239 238 239 239 239 239 239 240 241 243 243 244 246 246 247 247 248 248 249 250 251 253 253 255 255 255 256 258 260 262 265 268 271 274 276 279 281 280 283 285 286 288 292
238 238 238 239 239 240 240 241 242 243 244 244 245 246 246 247 247 249 250 250 252 253 254 255 255 255 256 257 259 261 263 267 270 272 274 277 278 279 281 284 285 286 289
239 239 237 238 240 241 241 241 241 243 244 244 245 246 247 247 248 249 250 251 253 254 254 254 254 255 257 258 259 260 263 266 269 270 272 274 276 278 280 282 284 285 287
239 239 239 239 240 240 241 241 241 242 243 245 245 246 247 248 248 249 251 253 254 254 254 254 255 256 257 258 259 260 262 265 267 269 271 272 274 277 279 281 282 284 285
240 239 239 239 239 240 241 241 242 243 244 245 246 246 247 247 248 249 250 252 253 253 253 253 254 256 257 258 259 261 263 264 266 268 270 270 272 275 278 280 281 283 284
241 241 241 240 240 241 241 242 243 244 245 245 245 246 246 247 248 249 250 251 252 252 252 253 254 255 257 258 259 261 262 264 266 267 268 270 272 275 277 278 279 281 283
242 243 242 241 241 241 242 242 242 243 244 244 244 245 245 246 248 249 250 250 251 251 252 253 254 255 256 257 259 260 261 263 265 266 267 269 271 273 276 277 277 280 282
242 243 243 243 242 243 243 242 242 243 244 244 244 245 245 245 247 249 250 251 251 251 252 253 254 255 256 257 259 260 262 263 265 265 266 268 270 272 274 276 276 278 280
244 243 244 245 243 242 243 243 243 243 244 244 244 245 245 245 246 248 250 251 251 251 251 253 254 255 257 258 259 260 262 264 265 266 267 268 270 271 273 275 276 278 280
245 245 245 245 244 242 242 243 242 242 244 245 245 246 246 246 246 247 249 249 250 250 252 252 253 254 256 258 259 261 262 264 265 267 268 269 271 272 273 275 277 278 279
245 245 245 245 245 244 244 243 243 242 243 244 245 245 246 246 247 248 248 248 249 251 252 253 252 254 256 257 259 262 263 264 265 267 268 269 271 272 273 275 277 277 279
246 246 245 245 245 245 244 243 242 242 242 243 244 245 246 247 248 248 248 249 250 251 253 253 253 254 255 258 259 261 263 264 265 266 268 269 271 272 273 274 276 276 278
246 245 245 245 245 245 245 244 242 242 242 242 244 244 246 247 248 249 249 250 250 252 253 253 254 254 255 257 258 260 262 263 265 266 268 270 271 272 273 275 276 277 278
245 244 244 244 245 244 244 244 244 243 243 243 243 244 245 247 248 249 250 250 251 252 252 254 255 254 254 256 258 260 262 263 265 266 268 270 271 272 273 275 276 277 278
244 243 244 244 244 244 244 244 244 244 244 244 244 244 245 247 247 248 248 249 250 252 253 253 254 255 256 257 258 259 261 263 265 266 267 268 270 272 273 274 276 277 278
245 245 245 244 244 244 244 245 245 245 244 245 245 245 246 246 247 247 248 249 249 251 252 252 253 255 256 256 258 259 260 262 264 265 267 268 270 271 272 273 275 277 278
245 245 245 245 244 245 245 246 246 246 246 246 246 246 246 247 247 248 248 249 250 250 250 251 253 254 255 257 258 259 260 261 263 265 267 268 269 271 272 274 275 277 278
246 245 245 246 246 246 247 247 247 246 247 247 247 247 247 247 247 247 247 248 248 250 250 252 253 255 256 258 259 260 260 261 263 265 266 268 270 271 272 273 275 276 278
248 246 245 246 246 246 246 246 247 247 247 247 247 248 248 247 247 247 248 247 247 249 251 252 253 254 256 257 259 259 260 261 262 264 266 268 270 271 272 273 275 276 278
Height
5819 5821 5823 5825 5827 5829 5831 5833 5835 5836 5838 5840 5841 5843 5844 5846 5847 5848 5849 5850 5851 5851 5852 5852 5852 5853 5853 5853 5853 5853 5852 5852 5852 5851 5850 5849 5848 5847 5846 5845 5843 5842 5840
5812 5814 5817 5819 5821 5823 5825 5827 5829 5831 5833 5834 5836 5838 5839 5841 5842 5843 5844 5845 5846 5847 5848 5848 5848 5849 5849 5849 5849 5849 5849 5848 5848 5847 5847 5846 5845 5844 5843 5841 5840 5838 5837
5804 5807 5810 5812 5814 5816 5819 5821 5823 5825 5826 5828 5830 5832 5833 5835 5836 5838 5839 5840 5841 5842 5843 5844 5844 5844 5845 5845 5845 5845 5845 5844 5844 5843 5843 5842 5841 5840 5839 5838 5836 5835 5833
5796 5799 5802 5804 5807 5809 5811 5814 5816 5818 5820 5822 5824 5825 5827 5829 5830 5832 5833 5835 5836 5837 5838 5839 5839 5840 5840 5840 5840 5840 5840 5840 5839 5839 5838 5838 5837 5836 5835 5834 5832 5831 5829
5787 5790 5793 5796 5799 5801 5804 5806 5809 5811 5813 5815 5817 5819 5821 5822 5824 5826 5827 5829 5830 5831 5832 5833 5834 5834 5835 5835 5835 5835 5835 5835 5835 5834 5833 5833 5832 5831 5830 5829 5828 5826 5825
5778 5781 5784 5787 5790 5793 5796 5798 5801 5804 5806 5808 5810 5812 5814 5815 5817 5819 5820 5822 5823 5825 5826 5827 5828 5829 5829 5830 5830 5830 5830 5830 5830 5829 5828 5828 5827 5826 5825 5824 5823 5822 5820
5767 5771 5774 5778 5781 5784 5787 5790 5792 5795 5798 5800 5802 5804 5806 5808 5810 5812 5814 5815 5816 5818 5819 5820 5822 5823 5823 5824 5824 5824 5824 5824 5824 5824 5823 5823 5822 5821 5820 5819 5818 5817 5815
5757 5760 5764 5767 5771 5774 5777 5780 5783 5786 5789 5792 5794 5796 5798 5801 5803 5804 5806 5808 5809 5811 5812 5813 5815 5816 5816 5817 5818 5818 5818 5818 5818 5818 5817 5817 5816 5816 5815 5814 5813 5812 5810
5744 5748 5752 5756 5760 5764 5767 5771 5774 5777 5780 5782 5785 5788 5790 5793 5795 5797 5798 5800 5801 5803 5804 5806 5807 5808 5809 5810 5811 5811 5812 5812 5812 5812 5811 5811 5810 5810 5809 5808 5807 5806 5805
5732 5737 5741 5745 5749 5753 5756 5760 5763 5766 5769 5772 5775 5778 5781 5784 5786 5788 5790 5792 5793 5795 5796 5798 5799 5801 5802 5803 5804 5804 5805 5805 5805 5805 5805 5804 5804 5803 5803 5802 5801 5800 5799
5720 5725 5729 5733 5737 5741 5745 5749 5752 5756 5759 5762 5765 5768 5771 5774 5776 5779 5781 5783 5785 5786 5788 5789 5791 5792 5793 5795 5796 5797 5797 5798 5798 5798 5798 5797 5797 5796 5796 5795 5794 5793 5792
5709 5712 5716 5721 5725 5729 5733 5737 5741 5744 5748 5751 5755 5758 5761 5764 5767 5769 5772 5774 5776 5778 5779 5781 5782 5784 5785 5786 5788 5789 5789 5790 5790 5790 5790 5790 5789 5789 5789 5788 5787 5786 5785
5696 5700 5704 5709 5713 5717 5721 5725 5729 5733 5737 5740 5744 5747 5750 5754 5756 5759 5762 5764 5767 5769 5770 5772 5773 5775 5776 5778 5779 5780 5781 5782 5782 5782 5782 5782 5782 5781 5781 5780 5779 5778 5777
5683 5687 5691 5696 5700 5704 5708 5712 5717 5721 5724 5728 5732 5736 5739 5743 5746 5749 5751 5754 5756 5759 5761 5763 5764 5766 5767 5769 5770 5771 5772 5773 5773 5774 5774 5774 5773 5773 5773 5772 5771 5770 5769
5670 5674 5678 5683 5687 5691 5695 5699 5704 5708 5712 5716 5720 5724 5728 5731 5735 5738 5740 5743 5746 5749 5751 5753 5755 5756 5758 5759 5761 5762 5763 5763 5764 5764 5765 5765 5765 5764 5764 5763 5762 5761 5760
5656 5661 5664 5669 5673 5677 5682 5686 5691 5696 5700 5704 5708 5712 5715 5719 5723 5726 5729 5732 5735 5738 5740 5743 5744 5746 5747 5749 5751 5752 5753 5754 5754 5755 5755 5755 5755 5755 5754 5754 5753 5752 5750
5642 5646 5650 5655 5659 5664 5668 5673 5678 5683 5687 5691 5695 5699 5703 5707 5711 5714 5718 5721 5723 5726 5729 5732 5733 5735 5737 5739 5740 5741 5743 5743 5744 5744 5744 5745 5745 5745 5744 5744 5743 5741 5740
5629 5633 5636 5641 5645 5650 5654 5659 5664 5669 5674 5678 5682 5687 5691 5695 5699 5703 5706 5709 5712 5714 5717 5720 5722 5724 5726 5728 5729 5731 5732 5733 5733 5734 5734 5734 5734 5734 5734 5733 5732 5731 5730
5615 5619 5623 5627 5631 5636 5641 5645 5650 5655 5660 5665 5669 5674 5678 5682 5686 5690 5694 5697 5700 5702 5705 5708 5710 5712 5714 5716 5717 5719 5720 5721 5722 5722 5723 5723 5723 5723 5722 5722 5721 5719 5718
5601 5606 5610 5614 5618 5622 5627 5631 5636 5641 5646 5651 5656 5660 5665 5669 5673 5677 5681 5684 5687 5690 5692 5695 5697 5700 5702 5704 5705 5707 5708 5709 5710 5711 5711 5711 5711 5711 5710 5710 5709 5707 5706
5587 5592 5596 5600 5604 5608 5613 5618 5622 5627 5632 5637 5642 5646 5651 5655 5659 5663 5667 5671 5673 5676 5679 5681 5684 5687 5689 5691 5693 5695 5696 5697 5698 5698 5699 5699 5699 5699 5698 5697 5696 5694 5693
5573 5577 5582 5586 5590 5595 5600 5604 5608 5613 5618 5623 5628 5632 5637 5641 5645 5649 5653 5657 5660 5663 5666 5669 5671 5674 5676 5678 5680 5682 5683 5685 5686 5687 5686 5687 5686 5686 5685 5684 5683 5682 5680
5560 5564 5567 5572 5576 5581 5585 5590 5594 5599 5604 5609 5614 5618 5622 5626 5631 5635 5639 5642 5646 5649 5652 5656 5658 5661 5663 5665 5667 5669 5670 5671 5672 5673 5673 5673 5673 5673 5672 5671 5670 5669 5667
5546 5550 5554 5558 5562 5567 5571 5575 5580 5585 5590 5595 5599 5604 5608 5612 5616 5620 5625 5628 5632 5635 5639 5642 5646 5648 5650 5651 5653 5655 5656 5657 5658 5659 5659 5660 5660 5660 5659 5658 5656 5655 5653
5532 5536 5540 5544 5548 5553 5557 5561 5565 5570 5575 5580 5585 5589 5593 5597 5602 5606 5610 5614 5618 5621 5624 5627 5631 5633 5636 5638 5639 5641 5642 5644 5645 5646 5646 5646 5646 5646 5645 5644 5643 5641 5639
5517 5521 5525 5530 5534 5538 5542 5546 5550 5555 5561 5566 5570 5574 5579 5583 5587 5590 5594 5599 5603 5607 5610 5613 5616 5619 5622 5623 5625 5627 5628 5630 5631 5633 5633 5633 5632 5632 5632 5631 5629 5627 5626